Powrót do katalogu

STARLINK-34712

AktywnyŁącznośćVLEO
NORAD 64907·PAYLOAD·🇺🇸 United States

Wystrzelony Jul 26, 2025 z Cape Canaveral Space Force Station

Loading…

Następne Przeloty (najbliższe 24 godziny)

TLE

ŚwieżeSource: CelesTrak SupGP

Epoka: Sep 14, 2026, 23:11 UTC

1 64907C 25157D   26257.96645833 -.00072966  00000+0 -21536-2 0  2579
2 64907  53.1576 181.9307 0001233  84.7679  48.2036 15.34459435    11

Śledź STARLINK-34712 w czasie rzeczywistym z AllMySat

Download on the App Store